Snowfall_Accumulation
0.0 0.0 0.0 0.0 0.0 0.0 0.0 0.0 0.0 0.0 0.0 0.0 0.0 0.0 0.0 0.0 0.0 0.0 0.0 0.0 0.0 0.0 0.0 0.0 0.0 0.0 0.0 0.0 0.0 0.0 0.0 0.0 0.2 0.0 0.0 0.0 0.0 0.0 0.0 0.0 0.0 0.0 0.0
0.0 0.0 0.0 0.0 0.0 0.0 0.0 0.0 0.0 0.0 0.0 0.0 0.0 0.0 0.0 0.0 0.0 0.0 0.0 0.0 0.0 0.0 0.0 0.0 0.0 0.0 0.0 0.0 0.0 0.0 0.0 0.0 0.1 0.0 0.0 0.0 0.0 0.0 0.0 0.0 0.0 0.0 0.0
0.0 0.0 0.0 0.0 0.0 0.0 0.0 0.0 0.0 0.0 0.0 0.0 0.0 0.0 0.0 0.0 0.0 0.0 0.0 0.0 0.0 0.0 0.0 0.0 0.0 0.0 0.0 0.1 0.0 0.0 0.1 0.0 0.0 0.2 0.2 0.2 0.2 0.2 0.2 0.1 0.1 0.1 0.0
0.0 0.0 0.0 0.0 0.0 0.0 0.0 0.0 0.0 0.0 0.0 0.0 0.0 0.0 0.0 0.0 0.0 0.0 0.0 0.0 0.0 0.0 0.0 0.0 0.0 0.0 0.0 0.0 0.0 0.0 0.0 0.2 0.2 0.3 0.4 0.4 0.3 0.3 0.3 0.6 1.2 0.9 1.1
0.0 0.0 0.0 0.0 0.0 0.0 0.0 0.0 0.0 0.0 0.0 0.0 0.0 0.0 0.0 0.0 0.0 0.0 0.0 0.0 0.0 0.0 0.0 0.0 0.0 0.0 nan nan 0.2 0.1 0.1 0.3 0.8 1.0 0.7 0.5 0.5 0.7 1.0 1.1 2.9 1.9 1.6
0.0 0.0 0.0 0.1 0.1 0.1 0.1 0.1 0.1 0.1 0.1 0.1 0.1 0.1 0.1 0.0 nan nan 0.0 0.0 0.1 0.1 0.1 0.1 0.1 0.1 0.1 nan nan nan nan 0.2 2.6 3.1 0.9 0.9 0.5 1.7 2.4 3.4 4.3 5.3 7.2
0.1 0.1 0.1 0.1 0.2 0.1 0.1 0.1 0.1 0.1 0.1 0.1 0.1 0.1 0.1 0.1 nan nan nan 0.1 0.1 0.1 0.1 0.1 0.2 0.2 0.1 0.1 nan nan nan nan nan 0.2 1.4 1.5 3.8 2.8 3.5 4.7 4.2 6.0 4.7
0.1 0.2 0.2 0.2 0.4 0.2 0.2 0.2 0.1 0.1 0.1 0.1 0.2 0.2 0.2 0.1 nan nan nan 0.1 0.1 0.1 0.1 0.2 0.2 0.2 0.2 0.2 0.2 0.6 0.5 0.7 0.6 0.8 1.5 2.2 2.0 1.3 1.8 3.0 4.8 5.2 4.6
0.1 0.1 0.1 0.3 0.7 0.4 1.3 0.4 0.2 0.5 0.5 0.7 0.6 1.4 1.3 1.0 nan nan 0.2 0.3 0.4 0.4 0.2 0.2 0.3 0.4 nan nan 1.6 4.3 4.1 3.2 nan nan nan nan nan nan nan 6.9 16.6 18.6 10.4
0.1 0.1 0.2 0.3 1.4 1.0 0.4 1.2 1.1 1.1 1.5 2.4 2.0 1.9 0.9 2.5 nan nan nan 2.5 3.5 2.6 1.3 0.7 1.0 0.5 nan nan 2.6 5.6 9.7 4.3 3.6 5.0 3.0 1.7 nan nan nan 2.5 5.8 17.6 10.7
0.4 0.5 0.6 0.6 1.9 0.7 1.3 1.2 2.5 3.8 2.7 4.7 4.6 3.2 3.0 1.6 1.1 nan nan 1.5 3.6 6.1 5.7 4.3 2.5 nan nan nan nan 4.2 5.5 3.1 6.9 6.2 5.7 5.4 4.2 3.8 4.1 3.6 2.7 4.0 8.9
1.1 1.4 1.9 3.0 2.2 2.0 4.9 3.9 6.2 6.2 6.7 6.5 6.5 5.0 3.8 2.3 nan nan nan nan nan 8.8 6.0 3.7 3.4 nan nan nan 2.1 nan nan 2.9 8.9 10.6 10.5 9.1 6.4 5.6 4.0 2.9 1.2 1.4 1.2
3.9 5.9 5.7 4.9 4.6 4.5 6.3 6.3 7.3 7.2 8.6 5.7 6.4 5.9 4.2 3.7 3.6 nan nan nan nan 5.8 4.0 3.6 nan nan nan nan nan nan 1.6 7.2 9.6 13.4 9.7 5.5 3.5 2.4 1.3 2.2 1.2 1.4 0.9
7.1 4.3 3.5 4.8 3.6 4.6 5.1 6.0 8.8 7.9 7.4 8.1 9.3 8.6 5.7 5.9 4.9 4.1 5.8 4.1 3.2 6.1 nan 4.8 nan 3.2 nan nan 3.4 3.4 4.9 5.7 6.6 7.8 6.9 3.8 2.3 4.1 5.3 3.7 5.8 5.0 8.9
5.1 3.4 3.8 5.1 6.0 4.2 3.6 5.1 4.7 2.8 6.0 12.2 14.2 10.8 13.4 13.5 9.5 3.8 8.6 11.2 9.0 8.9 7.1 12.4 10.3 7.0 6.7 6.1 7.7 6.7 5.7 6.6 8.2 7.6 8.8 7.3 6.6 6.6 6.0 4.7 5.5 8.0 10.5
3.7 5.4 4.4 4.6 4.2 4.1 4.8 4.9 nan nan nan nan nan 8.2 10.8 nan nan nan nan nan nan nan 17.5 19.4 11.1 9.1 7.6 7.7 9.3 8.8 8.0 6.6 7.7 8.5 8.8 8.0 8.5 7.3 7.8 8.6 8.0 9.5 10.5
6.0 5.0 6.2 5.0 5.8 6.6 7.1 8.3 9.3 6.7 nan nan nan nan nan nan nan nan nan nan nan nan 27.2 15.8 15.0 10.9 10.3 8.5 10.1 9.5 9.5 7.7 6.0 9.2 9.0 9.7 10.4 11.3 11.6 11.1 9.3 8.8 12.4
7.4 2.5 8.1 7.9 7.7 8.1 8.6 9.1 9.5 11.1 12.4 10.4 nan nan nan nan nan nan nan nan 25.8 nan 21.8 24.0 20.7 16.6 13.5 12.9 11.2 11.2 11.1 10.6 9.9 10.8 11.3 14.7 15.9 17.7 16.3 15.3 12.2 14.4 13.2
8.2 7.2 7.8 8.0 7.9 8.1 9.0 8.6 9.2 9.6 10.2 12.3 12.0 12.1 6.7 nan nan nan nan 18.1 25.1 22.6 22.3 23.1 19.9 19.3 16.8 17.4 16.2 17.6 15.2 15.7 15.3 19.5 19.2 20.5 18.6 19.2 18.4 13.3 10.8 6.6 7.7
8.9 3.7 6.8 11.2 9.9 9.2 7.3 9.4 9.1 9.4 10.2 11.6 12.0 10.6 16.9 16.9 22.9 23.6 20.3 26.1 25.8 23.8 21.6 23.5 23.9 25.9 25.8 23.7 23.3 21.7 21.9 22.5 20.6 21.6 21.6 20.0 18.3 18.9 13.6 17.8 15.4 13.5 14.2
13.3 11.7 2.7 10.7 13.3 13.3 13.7 11.5 9.3 12.5 11.4 13.4 10.9 10.7 nan 18.3 18.7 20.5 23.3 21.9 24.9 26.6 22.3 23.9 25.3 30.6 30.9 33.3 29.1 28.3 26.5 18.0 21.3 23.3 24.5 23.8 22.8 27.0 17.0 11.3 15.5 16.7 16.4
15.0 15.4 15.5 16.8 12.5 13.3 14.9 11.0 12.3 12.3 11.8 10.7 9.0 9.8 nan 12.3 15.2 16.0 17.4 22.0 25.6 25.6 28.1 32.0 31.5 33.7 30.9 29.1 26.9 25.0 21.4 24.5 26.0 24.9 21.0 21.8 25.0 21.9 20.9 14.8 15.2 13.4 17.1
13.0 11.7 13.0 13.7 13.4 6.7 15.2 16.9 15.2 14.6 13.4 14.5 12.8 12.6 14.6 18.6 15.8 15.4 22.3 25.1 20.9 19.9 22.4 23.5 22.2 22.1 20.4 23.3 21.0 20.2 21.7 24.0 24.8 30.8 23.0 23.8 23.3 25.9 23.0 20.3 18.0 19.6 18.0
12.2 12.7 12.5 16.3 14.7 13.2 15.5 16.4 14.4 6.3 14.8 15.6 24.1 19.7 12.3 15.8 23.0 18.3 19.3 22.1 18.7 29.1 22.0 23.3 19.9 19.6 21.0 28.9 34.7 34.1 36.2 37.5 36.6 33.9 30.9 23.0 23.2 19.2 20.3 22.0 17.6 16.0 14.1
16.8 14.6 14.5 13.5 19.4 16.0 15.3 18.1 13.5 17.9 20.9 17.1 20.5 15.8 16.6 16.2 17.6 23.1 21.7 18.1 19.9 18.5 16.1 16.2 16.4 16.6 17.0 17.5 23.4 28.9 28.1 4.5 19.5 4.9 28.0 20.7 24.4 25.1 24.3 20.4 18.7 16.2 13.9
14.0 14.7 15.4 16.0 15.9 17.2 17.9 17.7 18.2 15.1 18.8 19.9 19.0 19.2 16.9 16.8 16.6 19.3 18.0 18.1 15.0 15.5 15.7 16.7 16.2 14.1 13.4 15.3 16.4 6.9 4.2 3.7 23.6 4.2 23.7 20.4 23.3 22.6 22.4 22.4 20.8 19.0 15.4
Water_Equivalent
0.00 0.00 0.00 0.00 0.00 0.00 0.00 0.00 0.00 0.00 0.00 0.00 0.00 0.00 0.00 0.00 0.00 0.00 0.00 0.00 0.00 0.00 0.00 0.00 0.00 0.00 0.00 0.00 0.00 0.00 0.00 0.00 0.06 0.00 0.00 0.00 0.00 0.00 0.00 0.00 0.00 0.00 0.00
0.00 0.00 0.00 0.00 0.00 0.00 0.00 0.00 0.00 0.00 0.00 0.00 0.00 0.00 0.00 0.00 0.00 0.00 0.00 0.00 0.00 0.00 0.00 0.00 0.00 0.00 0.00 0.00 0.00 0.00 0.00 0.00 0.02 0.01 0.00 0.00 0.00 0.00 0.00 0.01 0.00 0.00 0.02
0.00 0.00 0.00 0.00 0.00 0.00 0.00 0.00 0.00 0.00 0.00 0.00 0.00 0.00 0.00 0.00 0.00 0.00 0.00 0.00 0.00 0.00 0.00 0.00 0.00 0.00 0.01 0.04 0.00 0.02 0.02 0.00 0.01 0.07 0.07 0.05 0.05 0.05 0.05 0.04 0.03 0.04 0.00
0.00 0.00 0.00 0.00 0.00 0.00 0.00 0.00 0.00 0.00 0.00 0.00 0.00 0.00 0.00 0.00 0.00 0.00 0.00 0.00 0.00 0.00 0.00 0.00 0.00 0.00 0.01 0.01 0.01 0.01 0.01 0.07 0.07 0.10 0.12 0.09 0.08 0.09 0.10 0.15 0.23 0.20 0.27
0.00 0.00 0.00 0.00 0.00 0.00 0.00 0.01 0.01 0.01 0.00 0.00 0.00 0.01 0.00 0.00 0.00 0.00 0.00 0.00 0.00 0.00 0.01 0.01 0.00 0.00 nan nan 0.06 0.04 0.03 0.08 0.22 0.26 0.15 0.12 0.11 0.14 0.20 0.24 0.54 0.36 0.28
0.00 0.00 0.00 0.02 0.03 0.03 0.03 0.03 0.03 0.02 0.02 0.02 0.02 0.02 0.02 0.00 nan nan 0.01 0.01 0.02 0.02 0.02 0.02 0.02 0.03 0.03 nan nan nan nan 0.05 0.56 0.72 0.20 0.19 0.11 0.34 0.48 0.58 0.68 0.71 0.89
0.02 0.04 0.04 0.04 0.04 0.03 0.03 0.03 0.03 0.02 0.02 0.02 0.02 0.02 0.03 0.02 nan nan nan 0.05 0.04 0.02 0.02 0.03 0.05 0.07 0.04 0.03 nan nan nan nan nan 0.06 0.27 0.31 0.71 0.54 0.66 0.71 0.61 0.88 0.69
0.04 0.05 0.05 0.04 0.08 0.05 0.04 0.04 0.03 0.02 0.03 0.03 0.04 0.04 0.03 0.03 nan nan nan 0.03 0.03 0.03 0.03 0.05 0.06 0.06 0.05 0.04 0.06 0.14 0.13 0.17 0.17 0.21 0.37 0.52 0.47 0.30 0.38 0.53 0.73 0.77 0.74
0.02 0.03 0.03 0.06 0.13 0.07 0.22 0.08 0.05 0.09 0.08 0.14 0.11 0.27 0.25 0.20 nan nan 0.05 0.08 0.08 0.09 0.05 0.06 0.08 0.08 nan nan 0.32 0.69 0.72 0.63 nan nan nan nan nan nan nan 1.25 2.47 2.69 1.51
0.03 0.03 0.03 0.06 0.24 0.19 0.08 0.19 0.18 0.19 0.21 0.36 0.30 0.33 0.22 0.48 nan nan nan 0.56 0.61 0.45 0.23 0.15 0.33 0.13 nan nan 0.49 0.90 1.21 0.64 0.69 0.96 0.60 0.36 nan nan nan 0.44 1.01 2.40 1.43
0.08 0.08 0.10 0.09 0.31 0.14 0.22 0.18 0.34 0.49 0.33 0.57 0.58 0.47 0.50 0.35 0.23 nan nan 0.34 0.69 0.97 0.94 0.68 0.47 nan nan nan nan 0.86 0.87 0.65 1.35 1.10 0.98 0.94 0.74 0.64 0.65 0.56 0.40 0.65 1.26
0.17 0.19 0.25 0.41 0.35 0.34 0.79 0.52 0.76 0.71 0.74 0.71 0.77 0.65 0.56 0.33 nan nan nan nan nan 1.48 0.89 0.58 0.56 nan nan nan 0.61 nan nan 0.78 1.65 1.78 1.55 1.26 0.90 0.77 0.57 0.39 0.15 0.18 0.18
0.48 0.73 0.73 0.66 0.69 0.71 1.04 0.74 0.98 0.87 1.01 0.65 0.80 0.75 0.55 0.52 0.57 nan nan nan nan 1.02 0.73 0.60 nan nan nan nan nan nan 0.53 1.19 1.45 1.70 1.13 0.71 0.48 0.34 0.17 0.27 0.15 0.17 0.11
0.98 0.52 0.41 0.57 0.49 0.61 0.79 0.89 1.28 1.04 0.88 0.97 1.07 1.00 0.67 0.69 0.66 0.65 1.00 0.86 0.82 1.06 nan 0.85 nan 0.59 nan nan 0.64 0.58 0.79 0.85 0.91 0.97 0.82 0.45 0.30 0.47 0.64 0.47 0.69 0.61 1.13
0.63 0.35 0.47 0.69 0.80 0.47 0.42 0.72 0.63 0.40 0.88 1.58 1.92 1.39 1.55 1.51 1.18 0.61 1.35 1.66 1.54 1.51 1.41 1.88 1.49 0.96 0.89 0.78 0.97 0.87 0.76 0.88 0.99 0.97 1.01 0.83 0.76 0.79 0.71 0.56 0.66 0.95 1.24
0.40 0.58 0.55 0.55 0.49 0.46 0.50 0.52 nan nan nan nan nan 1.22 1.62 nan nan nan nan nan nan nan 2.81 2.78 1.40 1.13 0.86 0.83 0.97 0.90 0.82 0.76 0.82 0.93 0.96 0.90 0.96 0.82 0.88 1.00 0.96 1.12 1.18
0.75 0.51 0.64 0.55 0.59 0.69 0.75 0.87 0.98 0.75 nan nan nan nan nan nan nan nan nan nan nan nan 4.04 2.09 1.68 1.15 1.05 0.82 0.99 0.90 0.88 0.73 0.54 0.92 0.91 1.03 1.13 1.25 1.33 1.25 1.05 0.98 1.45
0.83 0.82 0.85 0.81 0.79 0.82 0.87 0.92 0.97 1.14 1.28 1.08 nan nan nan nan nan nan nan nan 3.37 nan 2.90 2.94 2.41 1.85 1.39 1.25 1.04 1.01 1.00 0.96 0.91 1.04 1.10 1.58 1.78 2.03 1.86 1.81 1.41 1.73 1.59
0.84 0.73 0.80 0.82 0.81 0.84 0.92 0.84 0.92 0.95 1.01 1.26 1.22 1.27 1.21 nan nan nan nan 2.36 3.15 2.68 2.60 2.71 2.21 2.05 1.67 1.78 1.64 1.84 1.50 1.55 1.51 2.07 2.08 2.32 2.13 2.25 2.19 1.56 1.22 1.00 1.11
0.90 0.91 0.87 1.15 0.97 0.89 0.68 0.89 0.85 0.90 0.96 1.14 1.19 1.06 1.86 2.10 2.76 2.83 2.36 3.27 3.19 2.79 2.45 2.67 2.68 2.98 2.99 2.70 2.63 2.40 2.39 2.47 2.19 2.34 2.33 2.21 2.07 2.24 1.47 2.15 1.85 1.51 1.73
1.33 1.12 0.89 1.01 1.31 1.33 1.36 1.08 0.83 1.20 1.09 1.33 1.06 1.05 nan 1.94 2.00 2.25 2.66 2.43 2.88 3.11 2.49 2.73 2.85 3.70 3.82 4.23 3.47 3.30 3.02 1.83 2.31 2.58 2.78 2.71 2.61 3.28 1.95 1.18 1.84 2.04 1.99
1.44 1.52 1.53 1.65 1.11 1.19 1.42 0.96 1.10 1.11 1.06 0.94 0.77 0.91 nan 1.16 1.47 1.56 1.73 2.38 2.88 2.85 3.23 3.83 3.74 4.14 3.66 3.38 3.01 2.78 2.26 2.74 3.02 2.78 2.17 2.30 2.79 2.41 2.40 1.60 1.70 1.47 2.05
1.17 0.99 1.12 1.16 1.14 1.45 1.35 1.60 1.38 1.34 1.20 1.36 1.19 1.14 1.35 1.89 1.54 1.46 2.37 2.68 2.07 1.93 2.26 2.41 2.26 2.23 2.07 2.46 2.16 2.08 2.24 2.57 2.69 3.67 2.36 2.50 2.42 2.88 2.58 2.27 2.00 2.23 2.11
1.05 1.11 1.09 1.55 1.35 1.12 1.39 1.50 1.26 1.53 1.34 1.46 2.50 1.97 1.08 1.47 2.30 1.63 1.77 2.15 1.74 3.17 2.18 2.36 1.89 1.85 2.09 3.30 4.29 4.21 4.59 4.84 4.57 4.13 3.64 2.32 2.32 2.07 2.01 2.40 1.88 1.82 1.48
1.47 1.22 1.24 1.14 1.87 1.44 1.34 1.69 1.13 1.66 2.01 1.56 2.00 1.39 1.43 1.35 1.53 2.31 2.13 1.69 1.94 1.78 1.51 1.51 1.57 1.62 1.67 1.76 2.57 3.40 3.64 1.48 2.65 1.61 3.13 2.05 2.53 2.60 2.47 2.09 1.94 1.62 1.41
1.16 1.24 1.30 1.36 1.34 1.51 1.61 1.58 1.65 1.29 1.71 1.84 1.71 1.74 1.47 1.47 1.48 1.85 1.70 1.71 1.35 1.42 1.49 1.63 1.60 1.38 1.30 1.51 1.63 1.70 1.38 1.21 2.80 1.40 2.49 1.97 2.31 2.10 2.06 2.10 1.92 1.82 1.46
SL_Ratio
nan nan nan nan nan nan nan nan nan nan nan nan nan nan nan nan nan nan nan nan nan nan nan nan nan nan nan nan nan nan nan nan 2.5 3.3 nan nan nan nan nan nan nan nan nan
nan nan nan nan nan nan nan nan nan nan nan nan nan nan nan nan nan nan nan nan nan nan nan nan nan nan 0.0 nan nan nan nan nan 2.5 3.1 nan 2.5 3.1 nan 3.3 2.9 0.0 nan 3.0
nan nan nan nan nan nan nan nan nan nan nan nan nan nan nan nan nan nan nan nan nan nan nan nan nan 3.3 2.6 2.6 nan 2.5 2.5 3.3 2.8 3.1 3.5 3.2 3.2 3.2 3.4 3.4 3.4 3.4 2.7
nan nan nan nan nan nan nan nan nan nan nan nan nan nan nan nan nan nan nan nan nan nan nan nan nan 0.0 2.8 2.9 2.9 2.6 2.6 3.0 2.9 3.1 3.7 3.9 4.0 3.9 3.5 4.3 5.0 4.4 4.2
nan nan nan nan nan nan nan 2.6 2.6 2.9 nan nan nan 3.2 nan nan nan nan nan 3.3 3.0 nan 2.6 2.6 2.9 3.3 nan nan 2.9 3.0 3.1 3.3 3.6 3.9 4.2 4.4 4.6 5.0 5.2 4.7 5.5 5.3 5.5
nan 0.0 0.0 3.1 3.2 3.1 3.2 3.1 3.2 3.3 3.4 3.8 3.9 3.9 3.8 nan nan nan 2.9 2.9 3.0 2.8 3.0 2.7 2.7 3.0 3.0 nan nan nan nan 3.6 4.6 4.4 4.3 4.9 4.7 4.9 5.0 6.0 6.3 7.4 8.2
3.2 3.5 3.6 3.5 3.9 3.6 3.5 3.9 4.1 4.1 4.1 4.2 4.2 4.0 4.4 3.9 nan nan nan 3.1 3.2 3.1 3.2 3.2 3.2 2.8 3.3 3.3 nan nan nan nan nan 3.8 5.1 4.8 5.3 5.1 5.4 6.7 6.9 6.9 6.7
3.9 4.0 4.3 4.1 4.9 5.2 4.8 4.7 4.5 4.3 4.4 4.4 4.6 4.6 4.5 4.3 nan nan nan 3.5 3.7 3.5 3.4 3.5 3.5 3.9 3.9 4.0 3.5 4.1 4.1 3.9 3.7 3.8 4.1 4.2 4.3 4.2 4.7 5.6 6.6 6.7 6.3
4.1 4.4 4.4 4.9 5.5 5.2 5.6 5.5 5.2 5.1 6.0 5.2 5.1 5.3 5.1 4.7 nan nan 3.6 4.2 4.6 4.7 4.3 3.9 3.9 4.2 nan nan 5.1 6.2 5.7 5.0 nan nan nan nan nan nan nan 5.5 6.7 6.9 6.9
4.8 4.6 5.0 5.3 5.9 5.5 5.2 6.3 6.2 6.0 7.2 6.7 6.8 5.6 3.9 5.3 nan nan nan 4.5 5.7 5.7 5.6 5.0 3.1 4.1 nan nan 5.2 6.2 8.0 6.7 5.3 5.2 5.0 4.7 nan nan nan 5.6 5.8 7.4 7.5
5.7 6.2 6.5 6.2 6.2 5.4 5.9 6.7 7.3 7.8 8.4 8.3 7.9 6.8 5.9 4.6 4.9 nan nan 4.5 5.3 6.3 6.1 6.3 5.3 nan nan nan nan 4.9 6.3 4.7 5.1 5.6 5.8 5.7 5.7 6.0 6.2 6.4 6.8 6.2 7.1
6.8 7.5 7.8 7.2 6.3 6.0 6.3 7.7 8.2 8.8 9.1 9.1 8.4 7.7 6.8 6.9 nan nan nan nan nan 5.9 6.8 6.4 6.0 nan nan nan 3.5 nan nan 3.7 5.4 6.0 6.8 7.2 7.1 7.2 7.1 7.5 8.4 7.4 6.7
8.1 8.1 7.8 7.5 6.7 6.3 6.1 8.6 7.5 8.3 8.6 8.7 7.9 7.9 7.6 7.1 6.2 nan nan nan nan 5.7 5.5 6.1 nan nan nan nan nan nan 3.0 6.0 6.7 7.9 8.5 7.9 7.2 7.1 7.9 7.8 8.5 7.9 8.1
7.3 8.2 8.5 8.4 7.2 7.5 6.4 6.7 6.8 7.6 8.4 8.4 8.7 8.6 8.5 8.6 7.4 6.2 5.8 4.8 4.0 5.8 nan 5.6 nan 5.4 nan nan 5.4 5.9 6.2 6.6 7.3 8.0 8.4 8.4 7.6 8.6 8.4 7.9 8.3 8.3 7.9
8.1 9.9 8.2 7.4 7.5 8.9 8.6 7.1 7.4 7.1 6.9 7.7 7.4 7.8 8.6 8.9 8.1 6.3 6.4 6.8 5.8 5.9 5.1 6.6 6.9 7.3 7.6 7.9 7.9 7.7 7.5 7.5 8.2 7.9 8.7 8.8 8.6 8.4 8.4 8.3 8.4 8.5 8.5
9.3 9.3 8.0 8.3 8.5 8.9 9.6 9.5 nan nan nan nan nan 6.8 6.6 nan nan nan nan nan nan nan 6.2 7.0 7.9 8.0 8.8 9.3 9.6 9.8 9.8 8.7 9.4 9.2 9.2 8.9 8.9 8.9 8.9 8.6 8.3 8.6 8.9
7.9 9.7 9.6 9.1 9.9 9.6 9.5 9.5 9.5 8.9 nan nan nan nan nan nan nan nan nan nan nan nan 6.7 7.5 8.9 9.4 9.8 10.4 10.2 10.6 10.9 10.6 11.0 10.1 9.9 9.4 9.2 9.1 8.8 8.8 8.9 9.0 8.6
9.0 3.0 9.5 9.8 9.8 9.9 9.9 9.9 9.8 9.7 9.7 9.7 nan nan nan nan nan nan nan nan 7.6 nan 7.5 8.2 8.6 9.0 9.8 10.3 10.7 11.1 11.1 11.0 10.9 10.4 10.2 9.3 8.9 8.7 8.7 8.4 8.6 8.3 8.3
9.7 9.8 9.7 9.7 9.7 9.7 9.8 10.2 10.0 10.1 10.1 9.8 9.8 9.5 5.6 nan nan nan nan 7.6 8.0 8.5 8.6 8.5 9.0 9.4 10.0 9.8 9.9 9.5 10.1 10.1 10.2 9.4 9.2 8.9 8.7 8.5 8.4 8.5 8.8 6.6 7.0
9.9 4.1 7.7 9.8 10.2 10.4 10.7 10.5 10.7 10.5 10.6 10.2 10.1 10.0 9.1 8.1 8.3 8.3 8.6 8.0 8.1 8.5 8.8 8.8 8.9 8.7 8.6 8.8 8.9 9.0 9.1 9.1 9.4 9.2 9.2 9.1 8.8 8.5 9.3 8.3 8.3 8.9 8.2
10.0 10.4 3.0 10.6 10.2 10.1 10.0 10.7 11.1 10.4 10.5 10.1 10.3 10.1 nan 9.5 9.3 9.1 8.8 9.0 8.7 8.5 9.0 8.7 8.9 8.3 8.1 7.9 8.4 8.6 8.8 9.9 9.2 9.0 8.8 8.8 8.7 8.2 8.7 9.6 8.4 8.2 8.2
10.4 10.1 10.1 10.2 11.2 11.2 10.5 11.5 11.2 11.1 11.1 11.4 11.7 10.8 nan 10.6 10.4 10.2 10.1 9.2 8.9 9.0 8.7 8.4 8.4 8.2 8.4 8.6 8.9 9.0 9.5 8.9 8.6 9.0 9.7 9.5 9.0 9.1 8.7 9.3 8.9 9.1 8.3
11.1 11.8 11.6 11.8 11.8 4.6 11.3 10.6 11.0 11.0 11.2 10.7 10.7 11.1 10.8 9.9 10.3 10.5 9.4 9.4 10.1 10.3 9.9 9.7 9.8 9.9 9.9 9.5 9.7 9.7 9.7 9.3 9.2 8.4 9.7 9.5 9.7 9.0 8.9 9.0 9.0 8.8 8.5
11.7 11.5 11.4 10.5 10.9 11.8 11.2 11.0 11.5 4.2 11.0 10.7 9.6 10.0 11.3 10.7 10.0 11.2 10.9 10.3 10.8 9.2 10.1 9.9 10.6 10.6 10.0 8.7 8.1 8.1 7.9 7.8 8.0 8.2 8.5 9.9 10.0 9.3 10.1 9.2 9.4 8.8 9.6
11.4 12.0 11.7 11.8 10.3 11.1 11.4 10.7 11.9 10.8 10.4 11.0 10.3 11.4 11.6 12.0 11.5 10.0 10.2 10.7 10.3 10.4 10.7 10.8 10.5 10.2 10.2 9.9 9.1 8.5 7.7 3.0 7.3 3.0 9.0 10.1 9.7 9.7 9.9 9.8 9.6 10.0 9.8
12.1 11.9 11.9 11.7 11.9 11.4 11.1 11.2 11.0 11.8 11.0 10.8 11.1 11.0 11.5 11.5 11.2 10.4 10.6 10.6 11.1 10.9 10.6 10.2 10.1 10.2 10.4 10.2 10.1 4.1 3.0 3.0 8.4 3.0 9.5 10.3 10.1 10.7 10.9 10.7 10.8 10.4 10.5